Terminal Aerodrome Forecast
Issued by NWS

Home | Current Version | Previous Version | Graphics & Text | Print | Product List | Glossary On
Versions: 1 2 3 4 5 6 7 8 9 10 11 12 13 14 15 16 17 18 19 20 21 22 23
901
FTUS43 KGRB 201013 AAB
TAFCWA
TAF AMD
KCWA 201013Z 2010/2106 23009KT P6SM BKN004
      TEMPO 2010/2012 BKN006
     FM201200 30007KT P6SM SCT015 BKN100
     FM201800 30007KT P6SM SCT030 BKN100
     FM210100 VRB03KT P6SM SKC
      AMD LTD TO CLD VIS AND WIND TIL 201100=

USA.gov is the U.S. government's official web portal to all federal, state and local government web resources and services.